IBE17ZK LEMD-LEIB

Flight info

Callsign IBE17ZK
Flight time 0h 45m
Altitude 32000
Route NANDO T257 FENXE/N0414F320 T257 LASPO Z224 VARUT
Aircraft A20N/M-SDE2E3FGHIRWXY/LB1

Departure

Time 2026-04-30 18:51
Airport Adolfo Suárez Madrid–Barajas Airport (LEMD)

Arrival

Time 2026-04-30 19:36
Airport Ibiza Airport (LEIB)
Time Latitude Longitude Altitude Speed Heading
2026-04-30 18:04 40.49553 -3.58998 1980 ft 0 kts 269°
2026-04-30 18:08 40.49553 -3.58995 1980 ft 0 kts 269°
2026-04-30 18:31 40.49553 -3.58993 1980 ft 2 kts 269°
2026-04-30 18:32 40.49554 -3.58932 1980 ft 4 kts 274°
2026-04-30 18:32 40.49548 -3.58906 1980 ft 4 kts 351°
2026-04-30 18:32 40.49555 -3.58912 1980 ft 4 kts 281°
2026-04-30 18:33 40.49554 -3.58916 1980 ft 3 kts 271°
2026-04-30 18:33 40.49527 -3.58905 1980 ft 2 kts 359°
2026-04-30 18:33 40.49526 -3.58905 1980 ft 1 kts 359°
2026-04-30 18:37 40.49527 -3.58905 1980 ft 2 kts 359°
2026-04-30 18:38 40.49551 -3.58905 1980 ft 5 kts 359°
2026-04-30 18:38 40.49595 -3.58905 1980 ft 8 kts 359°
2026-04-30 18:38 40.49644 -3.58873 1984 ft 9 kts 59°
2026-04-30 18:38 40.49651 -3.58781 1980 ft 11 kts 87°
2026-04-30 18:39 40.49653 -3.58666 1980 ft 14 kts 89°
2026-04-30 18:39 40.49653 -3.58644 1980 ft 0 kts 90°
2026-04-30 18:39 40.49652 -3.58644 1980 ft 0 kts 97°
2026-04-30 18:39 40.49652 -3.58643 1980 ft 1 kts 105°
2026-04-30 18:40 40.49648 -3.58639 1980 ft 1 kts 131°
2026-04-30 18:40 40.49641 -3.58637 1983 ft 2 kts 162°
2026-04-30 18:40 40.49617 -3.58633 1980 ft 5 kts 173°
2026-04-30 18:40 40.49569 -3.58636 1980 ft 9 kts 186°
2026-04-30 18:41 40.49499 -3.58644 1980 ft 12 kts 181°
2026-04-30 18:41 40.49409 -3.58647 1980 ft 14 kts 179°
2026-04-30 18:41 40.49300 -3.58646 1980 ft 17 kts 180°
2026-04-30 18:41 40.49174 -3.58646 1984 ft 19 kts 180°
2026-04-30 18:42 40.49035 -3.58646 1982 ft 21 kts 180°
2026-04-30 18:42 40.48761 -3.58603 1980 ft 9 kts 112°
2026-04-30 18:42 40.48761 -3.58539 1980 ft 8 kts 89°
2026-04-30 18:45 40.48861 -3.57042 1980 ft 24 kts 90°
2026-04-30 18:45 40.48863 -3.56813 1980 ft 26 kts 89°
2026-04-30 18:45 40.48864 -3.56574 1980 ft 27 kts 90°
2026-04-30 18:46 40.48863 -3.56390 1980 ft 19 kts 91°
2026-04-30 18:46 40.48884 -3.56248 1980 ft 8 kts 27°
2026-04-30 18:46 40.48921 -3.56249 1980 ft 6 kts 359°
2026-04-30 18:46 40.48976 -3.56249 1981 ft 9 kts 359°
2026-04-30 18:47 40.49048 -3.56250 1980 ft 12 kts 359°
2026-04-30 18:47 40.49137 -3.56250 1980 ft 14 kts
2026-04-30 18:47 40.49240 -3.56249 1984 ft 16 kts
2026-04-30 18:47 40.49356 -3.56249 1980 ft 18 kts 359°
2026-04-30 18:48 40.49484 -3.56252 1980 ft 19 kts 359°
2026-04-30 18:48 40.49622 -3.56254 1982 ft 21 kts 360°
2026-04-30 18:48 40.49770 -3.56255 1982 ft 22 kts 360°
2026-04-30 18:48 40.49894 -3.56255 1980 ft 15 kts
2026-04-30 18:49 40.49939 -3.56156 1980 ft 14 kts 88°
2026-04-30 18:49 40.49942 -3.56088 1980 ft 0 kts 85°
2026-04-30 18:49 40.49942 -3.56086 1980 ft 1 kts 85°
2026-04-30 18:49 40.49944 -3.56058 1980 ft 4 kts 76°
2026-04-30 18:50 40.49962 -3.56016 1980 ft 7 kts 61°
2026-04-30 18:50 40.49997 -3.55958 1980 ft 9 kts 43°
2026-04-30 18:50 40.50049 -3.55926 1980 ft 7 kts
2026-04-30 18:50 40.50182 -3.55923 1980 ft 53 kts 359°
2026-04-30 18:51 40.50839 -3.55927 1980 ft 131 kts 360°
2026-04-30 18:51 40.51963 -3.55942 2032 ft 186 kts 359°
2026-04-30 18:51 40.53232 -3.55928 2916 ft 179 kts
2026-04-30 18:51 40.54507 -3.55771 3796 ft 188 kts
2026-04-30 18:52 40.55772 -3.55314 4694 ft 190 kts 21°
2026-04-30 18:52 40.56971 -3.54565 5552 ft 192 kts 27°
2026-04-30 18:52 40.58153 -3.53666 6250 ft 203 kts 33°
2026-04-30 18:52 40.59330 -3.52569 6920 ft 212 kts 36°
2026-04-30 18:53 40.60564 -3.51354 7444 ft 232 kts 37°
2026-04-30 18:53 40.61875 -3.50001 8054 ft 248 kts 38°
2026-04-30 18:53 40.63258 -3.48545 8797 ft 259 kts 38°
2026-04-30 18:53 40.64682 -3.47027 9635 ft 267 kts 38°
2026-04-30 18:54 40.66114 -3.45471 10488 ft 272 kts 39°
2026-04-30 18:54 40.67505 -3.43674 11151 ft 287 kts 55°
2026-04-30 18:54 40.68260 -3.41520 11468 ft 307 kts 77°
2026-04-30 18:54 40.68346 -3.38643 11789 ft 328 kts 101°
2026-04-30 18:55 40.67526 -3.35755 12081 ft 347 kts 124°
2026-04-30 18:55 40.64165 -3.31106 13683 ft 354 kts 137°
2026-04-30 18:55 40.62457 -3.28743 14457 ft 359 kts 134°
2026-04-30 18:56 40.59294 -3.23600 15915 ft 368 kts 129°
2026-04-30 18:56 40.57753 -3.20879 16644 ft 373 kts 128°
2026-04-30 18:56 40.56206 -3.18107 17357 ft 378 kts 128°
2026-04-30 18:57 40.53065 -3.12478 18709 ft 386 kts 129°
2026-04-30 18:57 40.51462 -3.09617 19355 ft 390 kts 129°
2026-04-30 18:57 40.49846 -3.06741 19995 ft 393 kts 129°
2026-04-30 18:58 40.46574 -3.00932 21272 ft 399 kts 128°
2026-04-30 18:58 40.44911 -2.97983 21902 ft 402 kts 128°
2026-04-30 18:58 40.43241 -2.95025 22522 ft 405 kts 128°
2026-04-30 18:59 40.39854 -2.89035 23739 ft 412 kts 128°
2026-04-30 19:00 40.34673 -2.79890 25209 ft 421 kts 129°
2026-04-30 19:00 40.32918 -2.76798 25704 ft 424 kts 129°
2026-04-30 19:00 40.29369 -2.70554 26620 ft 430 kts 129°
2026-04-30 19:01 40.25768 -2.64233 27496 ft 436 kts 129°
2026-04-30 19:01 40.23945 -2.61040 27909 ft 439 kts 129°
2026-04-30 19:02 40.20267 -2.54604 28707 ft 445 kts 129°
2026-04-30 19:02 40.16534 -2.48086 29467 ft 450 kts 130°
2026-04-30 19:03 40.12779 -2.41544 30187 ft 456 kts 130°
2026-04-30 19:03 40.08954 -2.34894 30895 ft 459 kts 130°
2026-04-30 19:04 40.05133 -2.28263 31624 ft 460 kts 130°
2026-04-30 19:04 40.01324 -2.21668 31984 ft 457 kts 130°
2026-04-30 19:05 39.97739 -2.14816 32086 ft 460 kts 122°
2026-04-30 19:06 39.91584 -2.00198 32081 ft 460 kts 122°
2026-04-30 19:06 39.86939 -1.89267 32091 ft 461 kts 122°
2026-04-30 19:07 39.82269 -1.78319 32084 ft 462 kts 122°
2026-04-30 19:08 39.76002 -1.63689 32081 ft 464 kts 122°
2026-04-30 19:09 39.71295 -1.52746 32077 ft 465 kts 123°
2026-04-30 19:09 39.68126 -1.45402 32077 ft 466 kts 123°
2026-04-30 19:10 39.61795 -1.30778 32073 ft 468 kts 123°
2026-04-30 19:11 39.56990 -1.19726 32073 ft 470 kts 123°
2026-04-30 19:12 39.53770 -1.12341 32075 ft 471 kts 123°
2026-04-30 19:12 39.50544 -1.04961 32082 ft 472 kts 123°
2026-04-30 19:13 39.44037 -0.90129 32083 ft 474 kts 124°
2026-04-30 19:14 39.40772 -0.82711 32084 ft 475 kts 124°
2026-04-30 19:14 39.37500 -0.75295 32083 ft 475 kts 124°
2026-04-30 19:15 39.34770 -0.69121 32082 ft 476 kts 124°
2026-04-30 19:15 39.29842 -0.57997 32080 ft 476 kts 123°
2026-04-30 19:16 39.27315 -0.50032 32078 ft 484 kts 109°
2026-04-30 19:16 39.25599 -0.41661 31700 ft 479 kts 108°
2026-04-30 19:17 39.24737 -0.37521 31067 ft 479 kts 108°
2026-04-30 19:17 39.22998 -0.29233 29674 ft 475 kts 108°
2026-04-30 19:17 39.22141 -0.25153 29071 ft 469 kts 107°
2026-04-30 19:18 39.20739 -0.18495 27763 ft 457 kts 107°
2026-04-30 19:18 39.19640 -0.13290 26628 ft 449 kts 107°
2026-04-30 19:18 39.18824 -0.09439 25818 ft 442 kts 107°
2026-04-30 19:19 39.18019 -0.05648 25026 ft 436 kts 107°
2026-04-30 19:19 39.17225 -0.01912 24260 ft 430 kts 107°
2026-04-30 19:19 39.15665 0.05410 22601 ft 418 kts 107°
2026-04-30 19:20 39.14900 0.08991 21756 ft 412 kts 107°
2026-04-30 19:20 39.14143 0.12531 20901 ft 407 kts 107°
2026-04-30 19:20 39.12654 0.19473 19301 ft 397 kts 107°
2026-04-30 19:21 39.11922 0.22880 18534 ft 392 kts 107°
2026-04-30 19:21 39.10483 0.29562 16834 ft 384 kts 107°
2026-04-30 19:22 39.09062 0.36139 15182 ft 377 kts 107°
2026-04-30 19:22 39.06982 0.45730 12820 ft 367 kts 107°
2026-04-30 19:23 39.04956 0.55031 10729 ft 349 kts 107°
2026-04-30 19:24 39.03718 0.60707 10347 ft 310 kts 107°
2026-04-30 19:24 39.03151 0.63299 10184 ft 292 kts 107°
2026-04-30 19:24 39.02006 0.68071 9888 ft 270 kts 116°
2026-04-30 19:25 38.99406 0.74407 8856 ft 265 kts 119°
2026-04-30 19:26 38.97697 0.78593 8199 ft 263 kts 118°
2026-04-30 19:26 38.96009 0.82724 7578 ft 260 kts 118°
2026-04-30 19:26 38.95170 0.84777 7263 ft 259 kts 117°
2026-04-30 19:27 38.93501 0.88857 6668 ft 257 kts 117°
2026-04-30 19:27 38.91858 0.92872 6078 ft 254 kts 116°
2026-04-30 19:28 38.91038 0.94871 5798 ft 252 kts 116°
2026-04-30 19:28 38.89016 0.98427 5234 ft 249 kts 145°
2026-04-30 19:29 38.86054 1.00443 4821 ft 236 kts 151°
2026-04-30 19:29 38.84603 1.01416 4508 ft 235 kts 155°
2026-04-30 19:30 38.81771 1.05862 3965 ft 205 kts 110°
2026-04-30 19:30 38.80649 1.09068 3713 ft 189 kts 114°
2026-04-30 19:31 38.79437 1.12039 3122 ft 185 kts 116°
2026-04-30 19:31 38.78812 1.13538 3032 ft 191 kts 111°
2026-04-30 19:31 38.78874 1.16761 2997 ft 177 kts 68°
2026-04-30 19:32 38.79360 1.18136 3001 ft 169 kts 62°
2026-04-30 19:32 38.79916 1.19480 2845 ft 169 kts 60°
2026-04-30 19:32 38.80461 1.20799 2630 ft 165 kts 60°
2026-04-30 19:32 38.80990 1.22077 2419 ft 161 kts 61°
2026-04-30 19:33 38.81520 1.23357 2202 ft 162 kts 61°
2026-04-30 19:33 38.82047 1.24634 1988 ft 161 kts 61°
2026-04-30 19:33 38.82571 1.25899 1776 ft 160 kts 62°
2026-04-30 19:33 38.83089 1.27153 1560 ft 159 kts 62°
2026-04-30 19:34 38.83607 1.28406 1342 ft 156 kts 62°
2026-04-30 19:34 38.84094 1.29584 1150 ft 141 kts 62°
2026-04-30 19:34 38.84951 1.31658 795 ft 129 kts 63°
2026-04-30 19:35 38.85374 1.32679 627 ft 130 kts 63°
2026-04-30 19:35 38.85804 1.33690 457 ft 128 kts 63°
2026-04-30 19:35 38.86221 1.34703 283 ft 129 kts 65°
2026-04-30 19:35 38.86625 1.35698 103 ft 126 kts 63°
2026-04-30 19:36 38.87025 1.36664 12 ft 115 kts 65°
2026-04-30 19:36 38.87338 1.37450 5 ft 79 kts 62°
2026-04-30 19:36 38.87640 1.37903 7 ft 1 kts 34°
2026-04-30 19:37 38.87651 1.37913 7 ft 5 kts 34°
2026-04-30 19:37 38.87690 1.37923 8 ft 5 kts 332°
2026-04-30 19:37 38.87695 1.37874 8 ft 8 kts 261°
2026-04-30 19:37 38.87673 1.37795 8 ft 11 kts 249°
2026-04-30 19:38 38.87630 1.37694 8 ft 15 kts 240°
2026-04-30 19:38 38.87585 1.37570 8 ft 13 kts 274°
2026-04-30 19:38 38.87622 1.37529 8 ft 7 kts 333°
2026-04-30 19:38 38.87679 1.37491 9 ft 11 kts 327°
2026-04-30 19:39 38.87687 1.37404 10 ft 12 kts 246°
2026-04-30 19:39 38.87642 1.37292 8 ft 16 kts 242°
2026-04-30 19:39 38.87585 1.37157 8 ft 19 kts 241°
2026-04-30 19:39 38.87523 1.37008 8 ft 17 kts 242°
2026-04-30 19:40 38.87515 1.36951 8 ft 3 kts 335°
2026-04-30 19:40 38.87533 1.36938 8 ft 0 kts 330°
2026-04-30 19:40 38.87537 1.36935 8 ft 2 kts 331°
2026-04-30 19:41 38.87557 1.36922 8 ft 2 kts 332°
2026-04-30 19:41 38.87566 1.36916 9 ft 1 kts 332°
2026-04-30 19:41 38.87567 1.36915 9 ft 0 kts 332°